1508493600.1,26978,16.81,74010.5,15.17,-27.71,-30.27,0,*48
1508493601.36,26979,16.81,74012.0,15.21,-28.25,-31.05,0,*43
1508493602.61,26980,16.81,74012.8,15.17,-31.01,-34.01,0,*4F
1508493603.86,26981,16.81,74012.0,15.15,-30.23,-32.97,0,*44
1508493605.11,26982,16.81,74008.8,15.13,-29.13,-31.73,0,*43
1508493606.36,26983,16.81,74010.5,15.15,-29.23,-32.07,0,*47
1508493607.62,26984,16.81,74012.3,15.13,-29.29,-32.07,0,*4C
1508493608.88,26985,16.81,74012.8,15.13,-28.05,-30.73,0,*43
1508493610.11,26986,16.81,74016.5,15.13,-27.77,-30.73,0,*4A
1508493611.4,26987,16.81,74012.0,15.15,-27.83,-30.61,0,*45
1508493612.66,26988,16.81,74014.5,15.15,-27.89,-30.77,0,*47
1508493613.95,26989,16.81,74014.3,15.15,-28.05,-30.77,0,*4D
1508493615.19,26990,16.81,74014.3,15.17,-27.89,-30.67,0,*4D
1508493616.44,26991,16.81,74012.5,15.21,-27.03,-29.73,0,*46
1508493617.73,26992,16.81,74018.0,15.21,-30.77,-33.77,0,*4F
1508493618.98,26993,16.81,74016.5,15.15,-31.11,-33.95,0,*44
1508493620.22,26994,16.81,74020.8,15.13,-31.51,-34.31,0,*48
1508493621.46,26995,16.81,74016.0,15.13,-33.03,-35.95,0,*43
1508493622.69,26996,16.81,74018.5,15.07,-34.13,-36.97,0,*42
1508493623.91,26997,16.81,74018.0,15.05,-32.35,-35.23,0,*4F
1508493625.11,26998,16.81,74016.5,15.01,-31.05,-34.13,0,*46
1508493626.36,26999,16.81,74020.3,14.99,-31.23,-34.13,0,*43
1508493627.59,27000,16.81,74018.8,14.99,-30.33,-33.15,0,*4A
1508493628.85,27001,16.81,74016.3,14.99,-29.51,-32.13,0,*40
1508493630.11,27002,16.81,74018.8,14.99,-30.67,-33.27,0,*48
1508493631.37,27003,16.81,74020.5,14.99,-30.67,-33.27,0,*49
1508493632.62,27004,16.81,74018.0,14.95,-30.39,-32.91,0,*45
1508493633.87,27005,16.81,74016.5,14.99,-30.01,-32.39,0,*41
1508493635.11,27006,16.81,74016.0,14.95,-30.11,-32.69,0,*4A
1508493636.39,27007,16.81,74016.0,14.95,-30.95,-33.49,0,*44
1508493637.62,27008,16.81,74014.5,14.95,-31.33,-33.67,0,*4A
1508493638.91,27009,16.81,74016.0,14.95,-29.73,-32.19,0,*4E
1508493640.16,27010,16.81,74016.0,14.95,-29.17,-31.67,0,*4E
1508493641.44,27011,16.81,74014.3,14.99,-28.63,-30.95,0,*4D
1508493642.72,27012,16.81,74012.5,14.99,-28.25,-30.55,0,*40
1508493643.98,27013,16.81,74014.8,14.99,-28.31,-30.73,0,*40
1508493645.24,27014,16.81,74010.5,14.99,-28.85,-31.11,0,*4D
1508493646.48,27015,16.81,74012.0,15.01,-29.13,-31.45,0,*43
1508493647.77,27016,16.81,74012.3,15.03,-28.25,-30.51,0,*42
1508493649.03,27017,16.81,74014.3,15.03,-28.05,-30.33,0,*45
1508493650.26,27018,16.81,74012.8,15.03,-27.51,-29.79,0,*42
1508493651.5,27019,16.81,74014.0,15.03,-27.89,-30.27,0,*45
1508493652.75,27020,16.81,74012.3,15.07,-27.83,-30.11,0,*44
1508493654.03,27021,16.81,74010.3,15.07,-28.75,-31.11,0,*42
1508493655.28,27022,16.81,74014.8,15.09,-28.79,-31.11,0,*43
1508493656.54,27023,16.81,74010.3,15.11,-28.79,-31.05,0,*4E
1508493657.8,27024,16.81,74014.3,15.09,-28.43,-30.77,0,*4D
1508493659.0,27025,16.81,74010.0,15.09,-29.67,-32.01,0,*48
1508493660.2,27026,16.81,74012.3,15.09,-30.33,-32.69,0,*4C
1508493661.44,27027,16.81,74012.5,15.07,-28.85,-31.01,0,*4A
1508493662.69,27028,16.81,74008.0,15.09,-29.13,-31.39,0,*4E
1508493663.94,27029,16.81,74010.8,15.09,-27.83,-30.05,0,*46
1508493665.14,27030,16.81,74006.8,15.09,-28.31,-30.67,0,*4C
1508493666.41,27031,16.81,74008.0,15.11,-27.61,-29.95,0,*4B
1508493667.66,27032,16.81,74010.5,15.11,-27.39,-29.83,0,*42
1508493668.92,27033,16.81,74006.8,15.13,-28.21,-30.61,0,*43
1508493670.15,27034,16.81,74008.0,15.13,-27.89,-30.17,0,*48
1508493671.35,27035,16.81,74010.0,15.13,-27.71,-30.11,0,*48
1508493672.55,27036,16.81,74010.5,15.13,-27.55,-29.83,0,*4E
1508493673.77,27037,16.81,74008.0,15.13,-26.87,-29.29,0,*41
1508493675.02,27038,16.81,74010.8,15.15,-28.75,-31.33,0,*49
1508493676.27,27039,16.81,74008.8,15.13,-30.01,-32.63,0,*42
1508493677.51,27040,16.81,74010.5,15.13,-31.39,-34.31,0,*47
1508493678.74,27041,16.81,74010.0,15.11,-30.45,-33.03,0,*48
1508493680.0,27042,16.81,74010.5,15.11,-29.45,-32.07,0,*46
1508493681.21,27043,16.81,74010.5,15.09,-29.45,-32.51,0,*4D
1508493682.46,27044,16.81,74010.3,15.09,-30.95,-33.89,0,*4B
1508493683.69,27045,16.81,74008.3,15.03,-30.45,-33.21,0,*4F
1508493684.97,27046,16.81,74012.5,15.03,-28.59,-31.57,0,*4B
1508493686.2,27047,16.81,74012.0,15.05,-28.43,-31.33,0,*45
1508493687.46,27048,16.81,74014.0,15.05,-28.43,-31.23,0,*4B
1508493688.67,27049,16.81,74018.0,15.05,-27.93,-30.83,0,*43
1508493689.93,27050,16.75,74014.8,15.05,-28.91,-31.73,0,*48
1508493691.16,27051,16.81,74016.0,15.05,-28.09,-31.05,0,*49
1508493692.4,27052,16.81,74012.5,15.05,-28.21,-31.17,0,*43
1508493693.6,27053,16.81,74012.5,15.05,-28.97,-32.01,0,*4B
1508493694.85,27054,16.81,74014.8,15.07,-28.75,-31.79,0,*4E
1508493696.09,27055,16.81,74012.8,15.05,-29.39,-32.39,0,*43
1508493697.35,27056,16.75,74014.0,15.05,-28.79,-31.85,0,*41
1508493698.58,27057,16.81,74014.0,15.05,-28.25,-31.05,0,*41
1508493699.83,27058,16.81,74014.0,15.07,-28.63,-31.33,0,*4B
1508493701.06,27059,16.75,74012.3,15.05,-28.69,-31.57,0,*40
1508493702.27,27060,16.75,74014.5,15.05,-29.57,-32.39,0,*4D
1508493703.51,27061,16.81,74012.3,15.05,-29.23,-32.07,0,*42
1508493704.74,27062,16.81,74014.0,15.05,-31.01,-34.01,0,*48
1508493705.97,27063,16.81,74014.5,15.03,-30.67,-33.55,0,*48
1508493707.21,27064,16.81,74014.3,15.03,-30.27,-33.15,0,*4F
1508493708.45,27065,16.81,74012.5,14.99,-30.55,-33.55,0,*4D
1508493709.71,27066,16.81,74016.0,14.95,-30.73,-33.67,0,*47
1508493710.94,27067,16.81,74012.5,14.95,-30.23,-32.91,0,*4B
1508493712.2,27068,16.81,74012.0,14.95,-29.23,-31.95,0,*4B
1508493713.49,27069,16.75,74014.5,14.95,-29.73,-32.75,0,*42
1508493714.74,27070,16.81,74014.8,14.95,-30.45,-33.31,0,*46
1508493715.99,27071,16.81,74016.3,14.95,-30.45,-33.09,0,*4C
1508493717.22,27072,16.75,74014.8,14.93,-29.79,-32.45,0,*47
1508493718.44,27073,16.75,74012.0,14.93,-30.45,-32.97,0,*4E
1508493719.69,27074,16.75,74010.8,14.91,-31.01,-33.73,0,*41
1508493720.94,27075,16.81,74012.5,14.91,-31.57,-34.41,0,*45
1508493722.2,27076,16.75,74012.0,14.87,-30.73,-33.37,0,*40
1508493723.46,27077,16.81,74016.5,14.87,-30.95,-33.67,0,*4C
1508493724.75,27078,16.75,74014.3,14.87,-30.61,-33.27,0,*4C
1508493726.02,27079,16.75,74014.5,14.87,-30.61,-33.09,0,*41
1508493727.29,27080,16.81,74014.8,14.87,-29.89,-32.35,0,*47
1508493728.57,27081,16.75,74012.8,14.91,-29.73,-32.19,0,*4A
1508493729.82,27082,16.75,74012.8,14.87,-29.17,-31.67,0,*46
1508493731.11,27083,16.81,74012.0,14.87,-28.47,-30.89,0,*42
1508493732.32,27084,16.81,74014.0,14.89,-28.53,-31.05,0,*4B
1508493733.52,27085,16.75,74012.5,14.89,-29.83,-32.35,0,*46
1508493734.73,27086,16.75,74010.8,14.89,-29.45,-31.79,0,*44
1508493735.96,27087,16.75,74014.3,14.91,-28.97,-31.33,0,*4C
1508493737.19,27088,16.75,74014.3,14.89,-28.47,-31.01,0,*46
1508493738.43,27089,16.75,74016.3,14.89,-28.25,-30.83,0,*48
1508493739.66,27090,16.81,74016.0,14.89,-27.83,-30.33,0,*48
1508493740.92,27091,16.81,74018.3,14.91,-27.51,-29.89,0,*46
1508493742.14,27092,16.75,74014.0,14.93,-26.71,-29.07,0,*42
1508493743.38,27093,16.75,74012.0,14.93,-26.03,-28.25,0,*47
1508493744.61,27094,16.75,74014.5,14.99,-26.07,-28.37,0,*4D
1508493745.84,27095,16.75,74012.3,14.99,-26.39,-28.97,0,*4B
1508493747.06,27096,16.75,74014.8,15.03,-26.23,-28.69,0,*40
1508493748.29,27097,16.75,74012.8,15.03,-26.61,-29.07,0,*4E
1508493749.55,27098,16.75,74014.5,15.03,-26.17,-28.37,0,*42
1508493750.81,27099,16.75,74012.0,15.07,-25.81,-28.31,0,*4D
1508493752.06,27100,16.75,74012.8,15.07,-26.13,-28.69,0,*49
1508493753.28,27101,16.81,74014.3,15.11,-26.23,-28.97,0,*4D
1508493754.53,27102,16.75,74010.5,15.11,-26.55,-29.07,0,*47
1508493755.81,27103,16.75,74014.8,15.11,-25.75,-28.25,0,*46
1508493757.07,27104,16.75,74012.0,15.15,-25.49,-28.05,0,*48
1508493758.34,27105,16.75,74012.0,15.15,-26.13,-28.75,0,*42
1508493759.59,27106,16.75,74012.8,15.15,-27.35,-29.79,0,*49
1508493760.82,27107,16.75,74010.5,15.17,-27.13,-29.57,0,*42
1508493762.09,27108,16.75,74012.8,15.17,-26.55,-29.17,0,*4A
1508493763.38,27109,16.75,74014.3,15.21,-27.61,-30.39,0,*4C
1508493764.64,27110,16.75,74014.5,15.17,-31.29,-34.01,0,*45
1508493765.89,27111,16.75,74012.8,15.13,-30.61,-33.31,0,*49
1508493767.14,27112,16.75,74012.3,15.11,-30.73,-33.67,0,*48
1508493768.4,27113,16.75,74014.5,15.09,-30.17,-32.85,0,*4F
1508493769.62,27114,16.75,74014.5,15.09,-28.43,-31.05,0,*4B
1508493770.85,27115,16.75,74012.0,15.09,-28.85,-31.57,0,*47
1508493772.11,27116,16.75,74010.3,15.07,-29.35,-32.23,0,*40
1508493773.34,27117,16.75,74010.8,15.07,-29.23,-31.67,0,*45
1508493774.62,27118,16.75,74014.5,15.07,-28.47,-31.11,0,*48
1508493775.88,27119,16.75,74012.8,15.07,-27.19,-29.73,0,*40
1508493777.11,27120,16.75,74010.5,15.07,-27.13,-29.79,0,*4A
1508493778.37,27121,16.75,74012.8,15.07,-27.89,-30.61,0,*49
1508493779.6,27122,16.75,74012.8,15.09,-28.59,-31.29,0,*4B
1508493780.83,27123,16.75,74012.3,15.09,-28.15,-30.89,0,*49
1508493782.06,27124,16.75,74012.0,15.09,-27.29,-30.01,0,*4E
1508493783.26,27125,16.75,74012.3,15.13,-26.61,-29.23,0,*41
1508493784.49,27126,16.75,74012.5,15.11,-27.07,-29.79,0,*4E
1508493785.75,27127,16.75,74018.5,15.11,-26.55,-29.29,0,*4C
1508493786.98,27128,16.75,74012.0,15.11,-26.39,-29.23,0,*43
1508493788.23,27129,16.75,74012.0,15.13,-29.13,-31.85,0,*42
1508493789.46,27130,16.75,74012.5,15.13,-28.43,-31.17,0,*45
1508493790.7,27131,16.75,74018.8,15.13,-28.63,-31.57,0,*42
1508493791.91,27132,16.75,74014.3,15.13,-29.67,-32.39,0,*4F
1508493793.19,27133,16.75,74018.3,15.11,-30.17,-32.97,0,*47
1508493794.44,27134,16.75,74018.3,15.11,-30.45,-33.49,0,*45
1508493795.69,27135,16.75,74014.8,15.09,-29.35,-32.29,0,*45
1508493796.95,27136,16.75,74014.8,15.09,-28.25,-30.95,0,*43
1508493798.22,27137,16.75,74016.8,15.07,-28.47,-31.11,0,*45
1508493799.46,27138,16.75,74016.5,15.07,-28.53,-31.29,0,*44
1508493800.68,27139,16.75,74016.5,15.07,-30.23,-33.03,0,*41
1508493801.88,27140,16.75,74012.8,15.05,-31.01,-34.07,0,*4F
1508493803.11,27141,16.75,74016.8,15.05,-29.13,-32.01,0,*44
1508493804.37,27142,16.75,74018.5,15.05,-28.43,-31.23,0,*40
1508493805.61,27143,16.75,74016.0,15.05,-28.53,-31.23,0,*40
1508493806.83,27144,16.75,74018.3,15.05,-31.01,-33.89,0,*4A
1508493808.06,27145,16.75,74018.5,15.05,-30.77,-33.21,0,*49
1508493809.28,27146,16.75,74016.8,15.01,-29.83,-32.51,0,*4B
1508493810.53,27147,16.75,74016.3,15.01,-28.59,-31.11,0,*4B
1508493811.77,27148,16.75,74018.3,15.01,-29.07,-31.85,0,*43
1508493813.02,27149,16.75,74018.0,15.01,-29.17,-31.95,0,*42
1508493814.26,27150,16.75,74018.8,15.01,-28.31,-31.11,0,*43
1508493815.48,27151,16.75,74016.8,15.05,-27.39,-30.11,0,*40
1508493816.76,27152,16.75,74016.5,15.03,-27.19,-30.01,0,*46
1508493817.99,27153,16.75,74018.5,15.05,-27.35,-30.33,0,*4E
1508493819.24,27154,16.75,74016.5,15.07,-28.47,-31.17,0,*46
1508493820.48,27155,16.75,74020.0,15.05,-29.23,-31.85,0,*4D
1508493821.74,27156,16.75,74016.3,15.05,-27.39,-30.17,0,*41
1508493823.01,27157,16.75,74016.3,15.07,-27.19,-29.89,0,*4F
1508493824.24,27158,16.75,74018.0,15.07,-27.03,-29.67,0,*4B
1508493825.5,27159,16.75,74016.0,15.09,-26.93,-29.51,0,*49
1508493826.74,27160,16.75,74014.5,15.11,-26.45,-29.13,0,*47
1508493827.99,27161,16.75,74016.5,15.13,-26.71,-29.39,0,*4B
1508493829.27,27162,16.75,74018.0,15.15,-26.97,-29.73,0,*48
1508493830.5,27163,16.75,74020.0,15.15,-27.29,-29.95,0,*45
1508493831.72,27164,16.75,74016.8,15.15,-27.13,-29.79,0,*49
1508493832.98,27165,16.75,74018.3,15.15,-28.47,-31.17,0,*47
1508493834.24,27166,16.75,74016.8,15.17,-27.89,-30.61,0,*4B
1508493835.47,27167,16.75,74014.0,15.15,-27.67,-30.45,0,*4E
1508493836.77,27168,16.75,74018.3,15.17,-28.05,-30.77,0,*49
1508493838.03,27169,16.75,74016.0,15.21,-28.53,-31.39,0,*45
1508493839.26,27170,16.75,74018.0,15.17,-28.53,-31.33,0,*42
1508493840.49,27171,16.75,74012.8,15.17,-29.07,-31.79,0,*4D
1508493841.73,27172,16.75,74012.8,15.17,-28.85,-31.45,0,*4A
1508493843.01,27173,16.75,74014.8,15.17,-29.17,-31.85,0,*4D
1508493844.29,27174,16.75,74014.0,15.15,-28.75,-31.11,0,*40
1508493845.55,27175,16.75,74012.0,15.15,-27.29,-29.89,0,*4F
1508493846.83,27176,16.75,74012.3,15.15,-26.81,-29.39,0,*44
1508493848.09,27177,16.75,74014.3,15.15,-27.03,-29.73,0,*40
1508493849.35,27178,16.75,74012.8,15.17,-26.97,-29.57,0,*47
1508493850.6,27179,16.75,74012.8,15.21,-27.35,-29.83,0,*43
1508493851.89,27180,16.75,74016.5,15.21,-27.99,-30.61,0,*47
1508493853.15,27181,16.75,74014.5,15.21,-28.97,-31.61,0,*46
1508493854.4,27182,16.75,74012.0,15.17,-28.37,-30.83,0,*47
1508493855.65,27183,16.75,74014.5,15.17,-27.13,-29.73,0,*48
1508493856.91,27184,16.75,74014.5,15.17,-26.97,-29.57,0,*44
1508493858.15,27185,16.75,74018.3,15.23,-27.29,-30.01,0,*4D
1508493859.41,27186,16.75,74012.5,15.23,-27.45,-30.17,0,*43
1508493860.67,27187,16.75,74018.0,15.21,-27.77,-30.55,0,*47
1508493861.9,27188,16.75,74016.8,15.17,-28.85,-31.67,0,*4F
1508493863.16,27189,16.75,74018.5,15.21,-30.23,-33.27,0,*48
1508493864.42,27190,16.75,74016.5,15.17,-29.35,-32.35,0,*48
1508493865.71,27191,16.75,74016.5,15.17,-29.89,-32.75,0,*4A
1508493866.99,27192,16.75,74018.3,15.17,-30.05,-32.97,0,*49
1508493868.22,27193,16.75,74020.0,15.13,-30.27,-33.31,0,*41
1508493869.45,27194,16.75,74018.8,15.13,-29.39,-32.23,0,*43
1508493870.68,27195,16.75,74016.5,15.11,-29.57,-32.23,0,*48
1508493871.94,27196,16.75,74018.3,15.11,-27.71,-30.61,0,*45
1508493873.2,27197,16.75,74016.0,15.13,-27.45,-30.17,0,*40
1508493874.41,27198,16.75,74018.8,15.13,-27.29,-30.11,0,*43
1508493875.63,27199,16.75,74018.3,15.13,-29.07,-31.91,0,*49
1508493876.87,27200,16.75,74014.0,15.15,-29.57,-32.23,0,*43
1508493878.09,27201,16.75,74016.3,15.13,-28.75,-31.67,0,*46
1508493879.31,27202,16.75,74016.0,15.13,-28.97,-31.73,0,*4C
1508493880.54,27203,16.75,74018.8,15.13,-29.07,-31.73,0,*45
1508493881.77,27204,16.75,74018.8,15.13,-28.09,-30.83,0,*43
1508493883.0,27205,16.75,74016.3,15.13,-27.77,-30.51,0,*4B
1508493884.29,27206,16.75,74016.5,15.15,-27.99,-30.77,0,*4A
1508493885.57,27207,16.75,74014.0,15.17,-27.99,-30.55,0,*49
1508493886.83,27208,16.75,74012.5,15.21,-28.15,-30.73,0,*4C
1508493888.06,27209,16.75,74016.0,15.17,-29.79,-32.57,0,*47
1508493889.31,27210,16.75,74018.5,15.15,-30.11,-32.85,0,*44
1508493890.56,27211,16.75,74012.3,15.15,-29.17,-31.79,0,*4B
1508493891.82,27212,16.75,74012.8,15.17,-27.55,-30.05,0,*48
1508493893.05,27213,16.75,74012.8,15.17,-28.69,-31.29,0,*46
1508493894.29,27214,16.75,74014.8,15.17,-28.85,-31.45,0,*49
1508493895.55,27215,16.75,74014.3,15.17,-28.59,-31.01,0,*49
1508493896.79,27216,16.75,74014.5,15.17,-28.53,-31.29,0,*4A
1508493898.07,27217,16.75,74014.5,15.17,-28.59,-30.95,0,*47
1508493899.33,27218,16.75,74012.3,15.21,-28.69,-31.23,0,*42
1508493900.59,27219,16.75,74014.5,15.21,-28.31,-30.73,0,*4A
1508493901.83,27220,16.75,74016.8,15.21,-27.93,-30.33,0,*43
1508493903.12,27221,16.75,74014.8,15.21,-28.25,-30.55,0,*40
1508493904.35,27222,16.75,74014.3,15.23,-28.59,-31.01,0,*4A
1508493905.55,27223,16.75,74014.3,15.23,-27.89,-30.27,0,*4C
1508493906.79,27224,16.75,74014.8,15.23,-28.63,-31.05,0,*41
1508493908.03,27225,16.75,74012.0,15.23,-28.59,-30.83,0,*46
1508493909.27,27226,16.75,74014.5,15.23,-28.09,-30.33,0,*4B
1508493910.52,27227,16.75,74012.5,15.25,-27.45,-29.79,0,*4D
1508493911.75,27228,16.75,74014.8,15.25,-27.07,-29.61,0,*4D
1508493913.01,27229,16.75,74014.0,15.27,-26.97,-29.39,0,*4B
1508493914.29,27230,16.75,74014.3,15.29,-26.81,-29.39,0,*4A
1508493915.56,27231,16.69,74010.8,15.29,-26.77,-29.17,0,*4E
1508493916.76,27232,16.75,74014.3,15.31,-26.61,-29.07,0,*42
1508493918.02,27233,16.75,74010.8,15.33,-27.07,-29.35,0,*41
1508493919.28,27234,16.75,74012.0,15.33,-26.71,-29.13,0,*42
1508493920.5,27235,16.75,74014.3,15.35,-27.07,-29.45,0,*46
1508493921.77,27236,16.75,74014.5,15.37,-27.23,-29.73,0,*44
1508493923.03,27237,16.75,74014.0,15.37,-26.71,-29.29,0,*4C
1508493924.23,27238,16.75,74010.5,15.43,-26.39,-29.07,0,*40
1508493925.43,27239,16.75,74010.5,15.39,-26.45,-28.97,0,*4F
1508493926.7,27240,16.75,74012.3,15.45,-26.17,-28.75,0,*41
1508493927.94,27241,16.75,74012.8,15.45,-26.49,-29.13,0,*4A
1508493929.2,27242,16.75,74014.0,15.45,-26.03,-28.59,0,*48
1508493930.44,27243,16.75,74012.3,15.47,-27.51,-30.17,0,*4E
1508493931.65,27244,16.75,74012.8,15.47,-27.19,-29.79,0,*45
1508493932.88,27245,16.75,74014.8,15.47,-26.07,-28.59,0,*49
1508493934.11,27246,16.75,74014.8,15.47,-25.91,-28.43,0,*4D
1508493935.34,27247,16.75,74014.3,15.49,-26.29,-28.85,0,*48
1508493936.61,27248,16.75,74010.5,15.51,-26.17,-28.79,0,*40
1508493937.87,27249,16.75,74014.5,15.55,-25.65,-28.09,0,*44
1508493939.1,27250,16.75,74012.3,15.55,-25.91,-28.53,0,*48
1508493940.35,27251,16.75,74014.0,15.53,-25.97,-28.43,0,*48
1508493941.57,27252,16.75,74012.5,15.55,-26.23,-28.69,0,*49
1508493942.84,27253,16.75,74014.8,15.55,-26.71,-29.13,0,*43
1508493944.1,27254,16.75,74012.8,15.57,-26.93,-29.39,0,*42
1508493945.35,27255,16.75,74012.5,15.57,-26.17,-28.75,0,*46
1508493946.61,27256,16.75,74012.5,15.59,-26.03,-28.79,0,*42
1508493947.86,27257,16.75,74016.5,15.59,-27.03,-29.73,0,*49
1508493949.12,27258,16.75,74012.5,15.59,-26.97,-29.57,0,*4C
1508493950.34,27259,16.75,74014.3,15.61,-26.39,-29.13,0,*42
1508493951.6,27260,16.75,74014.5,15.63,-26.07,-28.63,0,*41
1508493952.83,27261,16.75,74014.5,15.61,-26.65,-29.35,0,*44
1508493954.08,27262,16.75,74012.8,15.63,-26.45,-29.13,0,*43
1508493955.29,27263,16.75,74014.3,15.63,-26.23,-28.97,0,*4F
1508493956.55,27264,16.75,74014.0,15.63,-26.13,-28.85,0,*48
1508493957.81,27265,16.75,74014.3,15.67,-28.09,-31.33,0,*4D
1508493959.04,27266,16.75,74014.5,15.67,-29.45,-32.39,0,*4E
1508493960.3,27267,16.69,74012.8,15.63,-28.85,-31.57,0,*4D
1508493961.56,27268,16.75,74016.0,15.67,-28.25,-31.05,0,*4B
1508493962.81,27269,16.75,74012.0,15.61,-27.83,-30.73,0,*4F
1508493964.04,27270,16.75,74014.5,15.63,-27.07,-29.83,0,*4E
1508493965.24,27271,16.75,74012.3,15.61,-26.07,-28.97,0,*48
1508493966.46,27272,16.75,74012.0,15.61,-26.23,-29.01,0,*43
1508493967.73,27273,16.75,74012.0,15.67,-26.71,-29.39,0,*48
1508493968.98,27274,16.75,74014.5,15.67,-27.35,-30.11,0,*4C
1508493970.22,27275,16.75,74012.8,15.67,-27.71,-30.33,0,*4D
1508493971.44,27276,16.75,74012.0,15.67,-27.51,-30.11,0,*4C
1508493972.69,27277,16.69,74010.0,15.67,-28.69,-31.57,0,*4A
1508493973.92,27278,16.69,74012.5,15.67,-28.69,-31.33,0,*47
1508493975.2,27279,16.75,74012.5,15.63,-29.13,-31.91,0,*46
1508493976.43,27280,16.69,74010.3,15.63,-28.97,-31.79,0,*4B
1508493977.66,27281,16.75,74014.5,15.61,-29.83,-32.63,0,*44
1508493978.91,27282,16.75,74014.3,15.61,-28.75,-31.39,0,*43
1508493980.15,27283,16.69,74010.8,15.61,-27.83,-30.51,0,*4B
1508493981.38,27284,16.75,74012.5,15.59,-28.31,-31.05,0,*41
1508493982.67,27285,16.75,74014.8,15.59,-29.01,-31.95,0,*4B
1508493983.87,27286,16.75,74014.0,15.57,-29.07,-31.67,0,*4D
1508493985.11,27287,16.75,74014.5,15.57,-27.55,-30.17,0,*43
1508493986.4,27288,16.69,74014.8,15.59,-28.05,-30.77,0,*4E
1508493987.66,27289,16.69,74014.8,15.59,-28.37,-31.11,0,*4F
1508493988.89,27290,16.69,74014.5,15.57,-28.43,-31.33,0,*4A
1508493990.12,27291,16.75,74014.5,15.57,-28.69,-31.39,0,*49
1508493991.35,27292,16.75,74014.5,15.57,-28.85,-31.57,0,*40
1508493992.6,27293,16.75,74016.0,15.57,-28.21,-30.83,0,*47
1508493993.83,27294,16.69,74014.0,15.55,-27.71,-30.33,0,*43
1508493995.04,27295,16.75,74018.0,15.57,-28.69,-31.33,0,*47
1508493996.29,27296,16.69,74014.8,15.55,-27.89,-30.51,0,*42
1508493997.53,27297,16.69,74012.3,15.57,-27.83,-30.67,0,*4E
1508493998.76,27298,16.69,74014.8,15.57,-28.91,-31.67,0,*4C
1508493999.99,27299,16.75,74018.8,15.55,-29.23,-32.01,0,*44
1508494001.22,27300,16.69,74014.8,15.55,-29.23,-32.01,0,*45
1508494002.5,27301,16.69,74016.0,15.55,-30.17,-33.31,0,*49
1508494003.76,27302,16.69,74016.0,15.51,-32.01,-34.95,0,*42
1508494005.02,27303,16.69,74012.5,15.49,-30.95,-33.77,0,*4E
1508494006.27,27304,16.69,74018.3,15.47,-30.51,-33.49,0,*42
1508494007.47,27305,16.69,74018.3,15.47,-29.95,-32.39,0,*45
1508494008.7,27306,16.69,74016.0,15.47,-28.37,-30.95,0,*4B
1508494009.91,27307,16.69,74016.5,15.47,-27.89,-30.33,0,*4C
1508494011.11,27308,16.69,74012.8,15.47,-27.89,-30.27,0,*46
1508494012.36,27309,16.69,74014.8,15.47,-27.35,-29.73,0,*49
1508494013.63,27310,16.69,74016.5,15.51,-27.19,-29.39,0,*46
1508494014.85,27311,16.69,74012.5,15.49,-27.13,-29.39,0,*44
1508494016.08,27312,16.69,74016.0,15.53,-27.45,-29.79,0,*4B
1508494017.3,27313,16.69,74014.8,15.53,-27.93,-30.05,0,*42
1508494018.59,27314,16.69,74012.5,15.55,-28.25,-30.51,0,*40
1508494019.84,27315,16.69,74014.0,15.53,-28.09,-30.51,0,*49
1508494021.1,27316,16.69,74012.5,15.55,-27.89,-30.01,0,*4E
1508494022.32,27317,16.69,74012.0,15.53,-27.89,-30.05,0,*4D
1508494023.58,27318,16.75,74014.0,15.55,-27.23,-29.45,0,*48
1508494024.85,27319,16.69,74012.8,15.55,-27.19,-29.39,0,*4B
1508494026.08,27320,16.75,74016.0,15.55,-26.65,-28.97,0,*4E
1508494027.33,27321,16.69,74014.0,15.59,-26.45,-28.79,0,*41
1508494028.53,27322,16.69,74012.0,15.57,-26.23,-28.69,0,*4D
1508494029.73,27323,16.69,74012.3,15.61,-26.45,-28.85,0,*4B
1508494030.96,27324,16.69,74012.3,15.63,-25.91,-28.15,0,*4D
1508494032.22,27325,16.69,74012.8,15.63,-25.97,-28.31,0,*4C
1508494033.47,27326,16.69,74014.0,15.63,-26.23,-28.47,0,*42
1508494034.69,27327,16.69,74014.8,15.67,-27.03,-29.23,0,*47
1508494035.93,27328,16.69,74014.0,15.69,-27.35,-29.73,0,*46
1508494037.16,27329,16.75,74014.3,15.69,-27.29,-29.39,0,*44
1508494038.41,27330,16.69,74008.3,15.67,-26.61,-28.79,0,*4A
1508494039.63,27331,16.69,74010.0,15.69,-26.49,-28.75,0,*43
1508494040.86,27332,16.69,74010.3,15.73,-26.45,-28.63,0,*40
1508494042.06,27333,16.69,74010.5,15.73,-26.61,-28.69,0,*4D
1508494043.34,27334,16.69,74008.3,15.71,-26.29,-28.63,0,*4E
1508494044.59,27335,16.69,74012.5,15.75,-27.39,-29.57,0,*4D
1508494045.84,27336,16.69,74012.0,15.75,-28.21,-30.45,0,*43
1508494047.09,27337,16.69,74012.0,15.75,-28.63,-31.01,0,*45
1508494048.32,27338,16.69,74014.0,15.73,-29.61,-31.91,0,*46
1508494049.55,27339,16.69,74010.3,15.73,-30.83,-33.27,0,*4C
1508494050.8,27340,16.69,74014.8,15.71,-31.17,-33.77,0,*49
1508494052.07,27341,16.69,74012.0,15.67,-29.29,-31.57,0,*4B
1508494053.33,27342,16.69,74012.8,15.67,-29.95,-32.45,0,*4F
1508494054.59,27343,16.69,74008.8,15.63,-31.23,-33.21,0,*4D
1508494055.84,27344,16.69,74014.3,15.61,-30.17,-32.45,0,*4D
1508494057.1,27345,16.69,74012.5,15.59,-29.23,-31.51,0,*4E
1508494058.34,27346,16.69,74014.0,15.59,-28.53,-31.05,0,*4A
1508494059.56,27347,16.69,74014.3,15.59,-30.45,-32.91,0,*4B
1508494060.8,27348,16.69,74014.5,15.57,-28.85,-31.11,0,*44
1508494062.05,27349,16.69,74014.3,15.57,-28.43,-30.95,0,*42
1508494063.29,27350,16.69,74012.0,15.59,-29.83,-32.51,0,*43
1508494064.55,27351,16.69,74016.0,15.55,-29.45,-31.91,0,*4B
1508494065.78,27352,16.69,74014.5,15.55,-29.07,-31.33,0,*46
1508494067.06,27353,16.69,74012.8,15.55,-28.09,-30.51,0,*4D
1508494068.33,27354,16.69,74012.3,15.55,-28.25,-30.67,0,*41
1508494069.56,27355,16.69,74014.8,15.57,-27.89,-30.17,0,*4C
1508494070.78,27356,16.69,74014.3,15.57,-28.37,-30.67,0,*42
1508494072.07,27357,16.69,74012.8,15.59,-28.79,-31.11,0,*47
1508494073.33,27358,16.69,74012.0,15.59,-28.21,-30.83,0,*4F
1508494074.58,27359,16.69,74012.0,15.57,-28.21,-30.67,0,*4A
1508494075.8,27360,16.69,74014.0,15.61,-29.61,-31.91,0,*48
1508494077.04,27361,16.69,74018.0,15.57,-28.69,-31.11,0,*4D
1508494078.28,27362,16.69,74014.5,15.57,-29.45,-32.07,0,*45
1508494079.57,27363,16.69,74016.5,15.59,-28.21,-30.73,0,*48
1508494080.81,27364,16.69,74018.0,15.57,-29.07,-31.23,0,*40
1508494082.01,27365,16.69,74018.3,15.57,-27.67,-30.11,0,*49
1508494083.24,27366,16.69,74018.8,15.57,-27.35,-29.95,0,*49
1508494084.47,27367,16.69,74018.3,15.57,-27.83,-30.33,0,*41
1508494085.71,27368,16.69,74018.8,15.57,-28.53,-31.11,0,*4D
1508494086.92,27369,16.69,74016.3,15.57,-29.57,-32.01,0,*4B
1508494088.14,27370,16.69,74016.8,15.57,-30.45,-32.97,0,*47
1508494089.4,27371,16.69,74018.5,15.55,-30.83,-33.31,0,*43
1508494090.66,27372,16.69,74018.0,15.55,-28.91,-31.33,0,*4A
1508494091.89,27373,16.69,74016.3,15.53,-30.05,-32.69,0,*45
1508494093.11,27374,16.69,74018.3,15.53,-29.67,-32.29,0,*4A
1508494094.35,27375,16.69,74014.0,15.49,-29.39,-32.01,0,*41
1508494095.55,27376,16.69,74018.0,15.49,-29.23,-32.01,0,*49
1508494096.78,27377,16.69,74016.5,15.51,-28.69,-31.33,0,*4C